Location: Twillingate Astronomical Observatory
(49.6173°N, 54.7580°W)
Time: 02:17:56
(UTC-02:-30)

Amateur Radio Satellites - All Passes

Search period start: 22 October 2014 01:47
Search period end: 23 October 2014 01:47
Location: Twillingate Astronomical Observatory, 49.6173°N, 54.7580°W

Satellite Date Start Highest point End Downlink Frequencies (MHz)
Time Altitude Azimuth
Uribyol 2 22 Oct 01:58:58 02:01:10 13° 85° (E) 02:03:21 436.500 FM
ITAMSAT 1 22 Oct 02:03:55 02:06:22 13° 86° (E) 02:08:47 435.822 SSB
AO-Echo 22 Oct 02:06:22 02:10:03 19° 89° (E) 02:13:45 ?
UOSAT-12 22 Oct 02:16:48 02:17:01 10° 253° (WSW) 02:17:15 437.025 FM, 437.400 FM
JAS-1B 22 Oct 02:21:58 02:27:54 39° 98° (E) 02:34:47 435.800 - 435.900 CW/SSB
Oscar 19 22 Oct 02:37:32 02:42:35 55° 101° (E) 02:47:36 437.125 CW, 437.150 USB
MaSat-1 22 Oct 02:43:30 02:46:34 21° 313° (NW) 02:49:25 437.345 MHz
AO-27 22 Oct 02:47:05 02:51:43 31° 95° (E) 02:56:19 436.795 MHz FM
RS-15 22 Oct 03:16:58 03:26:57 38° 349° (N) 03:37:09 29.354 - 29.394 USB, Beacon 29.352 USB
Oscar 16 22 Oct 03:22:47 03:27:52 63° 289° (WNW) 03:32:55 437.025 USB, Beacon 2401.1428
Uribyol 2 22 Oct 03:36:14 03:41:30 80° 105° (ESE) 03:46:43 436.500 FM
ITAMSAT 1 22 Oct 03:41:24 03:46:41 83° 105° (ESE) 03:51:55 435.822 SSB
Gurwin Techsat 1B 22 Oct 03:41:56 03:47:06 49° 99° (E) 03:52:14 435.225 FM
AO-Echo 22 Oct 03:44:04 03:49:21 74° 288° (WNW) 03:54:40 ?
PCSat 22 Oct 03:48:15 03:50:35 13° 103° (ESE) 03:52:56 145.825 MHz
TMSAT-1 22 Oct 03:55:20 04:00:30 48° 99° (E) 04:05:37 436.925 FM
AO-7 22 Oct 04:06:27 04:12:26 21° 88° (E) 04:18:23 29.400 - 29.500 MHz
JAS-1B 22 Oct 04:12:47 04:18:40 46° 295° (WNW) 04:25:30 435.800 - 435.900 CW/SSB
Oscar 19 22 Oct 04:17:29 04:21:37 25° 300° (WNW) 04:25:44 437.125 CW, 437.150 USB
AO-27 22 Oct 04:26:25 04:31:23 44° 294° (WNW) 04:36:19 436.795 MHz FM
OPAL 22 Oct 04:27:47 04:32:35 41° 63° (ENE) 04:37:21 ?
Oscar 16 22 Oct 05:04:18 05:06:15 12° 309° (NW) 05:08:13 437.025 USB, Beacon 2401.1428
Sapphire 22 Oct 05:05:02 05:10:12 47° 117° (ESE) 05:15:24 437.095 MHz 1200 baud AX-25 AFSK
Uribyol 2 22 Oct 05:16:46 05:20:23 19° 304° (NW) 05:23:59 436.500 FM
ITAMSAT 1 22 Oct 05:22:01 05:25:33 19° 305° (NW) 05:29:05 435.822 SSB
Gurwin Techsat 1B 22 Oct 05:22:19 05:26:52 30° 298° (WNW) 05:31:24 435.225 FM
AO-Echo 22 Oct 05:24:29 05:27:17 15° 307° (NW) 05:30:06 ?
Uosat F 22 Oct 05:26:12 05:31:08 50° 100° (E) 05:36:01 435.120 FM
PCSat 22 Oct 05:27:40 05:33:04 74° 122° (ESE) 05:38:30 145.825 MHz
RS-15 22 Oct 05:32:14 05:42:38 44° 23° (NNE) 05:53:20 29.354 - 29.394 USB, Beacon 29.352 USB
TMSAT-1 22 Oct 05:35:39 05:40:13 30° 298° (WNW) 05:44:45 436.925 FM
JAS-2 22 Oct 05:51:15 05:58:09 35° 92° (E) 06:05:11 435.800 - 435.900 CW/SSB, 435.910 FM
AO-7 22 Oct 05:58:04 06:06:27 84° 109° (ESE) 06:14:48 29.400 - 29.500 MHz
OPAL 22 Oct 06:06:54 06:11:32 33° 262° (W) 06:16:09 ?
JAS-1B 22 Oct 06:07:04 06:08:01 10° 316° (NW) 06:09:00 435.800 - 435.900 CW/SSB
STRAND 1 22 Oct 06:07:12 06:11:49 35° 64° (ENE) 06:16:28 ?
Sapphire 22 Oct 06:48:43 06:53:46 39° 318° (NW) 06:58:51 437.095 MHz 1200 baud AX-25 AFSK
Uosat F 22 Oct 07:05:27 07:09:41 27° 299° (WNW) 07:13:53 435.120 FM
Hamsat 22 Oct 07:05:53 07:10:05 76° 103° (ESE) 07:14:17 145.90 MHz
PCSat 22 Oct 07:12:20 07:17:00 28° 324° (NW) 07:21:42 145.825 MHz
SO-67 22 Oct 07:21:59 07:24:04 15° 91° (E) 07:26:09 435.3500 MHz FM
JAS-2 22 Oct 07:36:02 07:43:30 64° 292° (WNW) 07:51:15 435.800 - 435.900 CW/SSB, 435.910 FM
RS-15 22 Oct 07:45:16 07:56:25 90° 232° (SW) 08:08:02 29.354 - 29.394 USB, Beacon 29.352 USB
STRAND 1 22 Oct 07:46:12 07:50:59 38° 263° (W) 07:55:48 ?
AO-7 22 Oct 07:51:34 07:58:28 31° 311° (NW) 08:05:22 29.400 - 29.500 MHz
Saudisat 1A 22 Oct 08:12:01 08:15:08 19° 114° (ESE) 08:18:16 436.775 MHz
Sapphire 22 Oct 08:35:37 08:38:45 15° 342° (NNW) 08:41:55 437.095 MHz 1200 baud AX-25 AFSK
Hamsat 22 Oct 08:43:13 08:45:30 15° 301° (WNW) 08:47:48 145.90 MHz
SO-67 22 Oct 08:53:59 08:57:17 42° 289° (WNW) 09:00:34 435.3500 MHz FM
PCSat 22 Oct 08:59:42 09:02:18 13° 349° (N) 09:04:55 145.825 MHz
MaSat-1 22 Oct 09:13:55 09:16:23 24° 48° (NE) 09:18:37 437.345 MHz
JAS-2 22 Oct 09:22:26 09:27:16 19° 312° (NW) 09:32:15 435.800 - 435.900 CW/SSB, 435.910 FM
AO-7 22 Oct 09:46:35 09:48:37 11° 337° (NNW) 09:50:39 29.400 - 29.500 MHz
Saudisat 1A 22 Oct 09:49:53 09:54:16 68° 313° (NW) 09:58:41 436.775 MHz
HO-68 22 Oct 09:58:00 10:05:02 52° 100° (E) 10:12:00 435.675 MHz FM
RS-15 22 Oct 09:58:28 10:07:29 30° 256° (WSW) 10:16:50 29.354 - 29.394 USB, Beacon 29.352 USB
UKube-1 22 Oct 10:02:17 10:05:37 21° 93° (E) 10:08:57 145.840 MHz, 145.915 MHz
Sapphire 22 Oct 10:22:07 10:24:35 13° 9° (N) 10:27:03 437.095 MHz 1200 baud AX-25 AFSK
FUNcube-1 22 Oct 10:36:51 10:40:01 20° 91° (E) 10:43:07 145.950 - 145.970 MHz USB
PCSat 22 Oct 10:45:11 10:48:08 15° 16° (NNE) 10:51:05 145.825 MHz
Oscar 11 22 Oct 10:45:57 10:50:10 51° 100° (E) 10:54:22 145.825 FM, Beacon 2401.500 USB
MaSat-1 22 Oct 10:50:03 10:51:53 17° 252° (WSW) 10:53:37 437.345 MHz
ZACube-1 22 Oct 11:26:54 11:31:12 60° 101° (E) 11:35:23 437.345 MHz
Saudisat 1A 22 Oct 11:31:27 11:34:37 19° 335° (NNW) 11:37:49 436.775 MHz
UKube-1 22 Oct 11:37:51 11:42:05 48° 291° (WNW) 11:46:17 145.840 MHz, 145.915 MHz
HO-68 22 Oct 11:46:00 11:52:36 41° 301° (WNW) 11:59:11 435.675 MHz FM
KITSAT 1 22 Oct 11:51:34 11:56:44 19° 101° (E) 12:01:54 435.175 FM
Sapphire 22 Oct 12:05:27 12:09:59 26° 34° (NE) 12:14:31 437.095 MHz 1200 baud AX-25 AFSK
FUNcube-1 22 Oct 12:12:31 12:16:43 49° 290° (WNW) 12:20:47 145.950 - 145.970 MHz USB
Oscar 19 22 Oct 12:21:17 12:25:07 22° 58° (ENE) 12:28:56 437.125 CW, 437.150 USB
Oscar 11 22 Oct 12:22:50 12:26:02 21° 298° (WNW) 12:29:14 145.825 FM, Beacon 2401.500 USB
PCSat 22 Oct 12:28:16 12:33:14 35° 40° (NE) 12:38:11 145.825 MHz
AO-27 22 Oct 12:33:22 12:35:57 14° 52° (NE) 12:38:34 436.795 MHz FM
ZACube-1 22 Oct 13:04:15 13:07:11 18° 300° (WNW) 13:10:04 437.345 MHz
Oscar 16 22 Oct 13:05:08 13:10:03 46° 67° (ENE) 13:14:58 437.025 USB, Beacon 2401.1428
SO-50 22 Oct 13:11:33 13:14:00 15° 110° (ESE) 13:16:29 436.795 FM
JAS-1B 22 Oct 13:13:18 13:18:54 46° 66° (ENE) 13:24:18 435.800 - 435.900 CW/SSB
Saudisat 1A 22 Oct 13:14:17 13:15:54 12° 359° (N) 13:17:30 436.775 MHz
Uribyol 2 22 Oct 13:20:04 13:24:36 31° 62° (ENE) 13:29:10 436.500 FM
AO-7 22 Oct 13:22:28 13:26:46 15° 33° (NNE) 13:31:04 29.400 - 29.500 MHz
AO-Echo 22 Oct 13:23:23 13:27:49 35° 64° (ENE) 13:32:23 ?
ITAMSAT 1 22 Oct 13:25:18 13:29:53 32° 63° (ENE) 13:34:29 435.822 SSB
Gurwin Techsat 1B 22 Oct 13:29:29 13:33:22 21° 57° (ENE) 13:37:16 435.225 FM
HO-68 22 Oct 13:36:03 13:38:28 12° 324° (NW) 13:40:53 435.675 MHz FM
TMSAT-1 22 Oct 13:42:38 13:46:28 21° 57° (ENE) 13:50:19 436.925 FM
KITSAT 1 22 Oct 13:42:47 13:50:49 75° 122° (ESE) 13:58:54 435.175 FM
Sapphire 22 Oct 13:48:36 13:54:05 84° 236° (WSW) 13:59:31 437.095 MHz 1200 baud AX-25 AFSK
Oscar 19 22 Oct 13:58:51 14:04:00 68° 257° (WSW) 14:09:09 437.125 CW, 437.150 USB
AO-27 22 Oct 14:09:24 14:14:35 71° 71° (ENE) 14:19:49 436.795 MHz FM
PCSat 22 Oct 14:11:37 14:16:56 55° 242° (WSW) 14:22:12 145.825 MHz
Oscar 16 22 Oct 14:45:09 14:49:36 29° 266° (W) 14:54:04 437.025 USB, Beacon 2401.1428
ISS 22 Oct 14:47:30 14:50:33 34° 148° (SSE) 14:53:37 145.800 FM
SO-50 22 Oct 14:49:18 14:53:51 90° 130° (SE) 14:58:33 436.795 FM
UOSAT-12 22 Oct 14:50:32 14:52:52 14° 109° (ESE) 14:55:14 437.025 FM, 437.400 FM
Saudisat 1A 22 Oct 14:54:09 14:57:12 18° 24° (NNE) 15:00:15 436.775 MHz
Uribyol 2 22 Oct 14:58:55 15:03:55 46° 261° (W) 15:08:58 436.500 FM
AO-Echo 22 Oct 15:02:05 15:06:34 36° 264° (W) 15:11:14 ?
ITAMSAT 1 22 Oct 15:04:18 15:09:15 43° 262° (W) 15:14:16 435.822 SSB
JAS-1B 22 Oct 15:04:44 15:09:53 30° 265° (W) 15:14:50 435.800 - 435.900 CW/SSB
Uosat F 22 Oct 15:07:07 15:10:35 19° 56° (ENE) 15:14:04 435.120 FM
Gurwin Techsat 1B 22 Oct 15:07:31 15:12:49 74° 257° (WSW) 15:18:10 435.225 FM
AO-7 22 Oct 15:09:51 15:17:33 45° 57° (ENE) 15:25:16 29.400 - 29.500 MHz
TMSAT-1 22 Oct 15:20:33 15:25:51 75° 256° (WSW) 15:31:12 436.925 FM
Sapphire 22 Oct 15:33:37 15:36:42 16° 256° (WSW) 15:39:46 437.095 MHz 1200 baud AX-25 AFSK
KITSAT 1 22 Oct 15:39:22 15:46:54 41° 327° (NNW) 15:54:28 435.175 FM
Oscar 19 22 Oct 15:43:49 15:44:19 10° 276° (W) 15:44:49 437.125 CW, 437.150 USB
AO-27 22 Oct 15:51:00 15:54:39 19° 270° (W) 15:58:19 436.795 MHz FM
JAS-2 22 Oct 16:09:35 16:14:19 24° 52° (NE) 16:19:29 435.800 - 435.900 CW/SSB, 435.910 FM
ISS 22 Oct 16:23:46 16:27:06 74° 347° (NNW) 16:30:28 145.800 FM
UOSAT-12 22 Oct 16:27:36 16:32:17 83° 128° (SE) 16:37:02 437.025 FM, 437.400 FM
Hamsat 22 Oct 16:30:11 16:32:02 13° 57° (ENE) 16:33:54 145.90 MHz
SO-50 22 Oct 16:31:19 16:35:03 24° 332° (NNW) 16:38:52 436.795 FM
Saudisat 1A 22 Oct 16:33:15 16:37:39 60° 46° (NE) 16:42:01 436.775 MHz
Oscar 10/S400 22 Oct 16:36:51 16:54:26 40° 162° (SSE) 17:44:15 145.825 - 145.975 CW/USB, Beacon 145.810 USB
Uosat F 22 Oct 16:43:47 16:48:49 77° 256° (WSW) 16:53:53 435.120 FM
Gurwin Techsat 1B 22 Oct 16:51:59 16:53:45 12° 276° (W) 16:55:30 435.225 FM
AO-7 22 Oct 17:02:12 17:10:14 54° 258° (WSW) 17:18:21 29.400 - 29.500 MHz
TMSAT-1 22 Oct 17:04:48 17:06:43 12° 276° (W) 17:08:38 436.925 FM
KITSAT 1 22 Oct 17:38:19 17:44:44 25° 355° (N) 17:51:09 435.175 FM
JAS-2 22 Oct 17:52:35 17:58:32 83° 256° (WSW) 18:05:22 435.800 - 435.900 CW/SSB, 435.910 FM
SO-67 22 Oct 18:00:01 18:01:13 12° 60° (ENE) 18:02:26 435.3500 MHz FM
ISS 22 Oct 18:00:41 18:04:00 62° 7° (N) 18:07:20 145.800 FM
Hamsat 22 Oct 18:03:09 18:07:22 88° 256° (WSW) 18:11:36 145.90 MHz
UOSAT-12 22 Oct 18:09:05 18:13:00 25° 330° (NNW) 18:16:57 437.025 FM, 437.400 FM
OPAL 22 Oct 18:11:48 18:16:34 43° 101° (E) 18:21:16 ?
Saudisat 1A 22 Oct 18:13:26 18:16:52 22° 245° (WSW) 18:20:18 436.775 MHz
SO-50 22 Oct 18:14:57 18:17:16 13° 356° (N) 18:19:37 436.795 FM
Uosat F 22 Oct 18:26:50 18:28:28 11° 275° (W) 18:30:06 435.120 FM
HO-68 22 Oct 18:47:10 18:51:27 17° 43° (NE) 18:55:44 435.675 MHz FM
AO-7 22 Oct 19:03:05 19:05:04 11° 280° (W) 19:07:03 29.400 - 29.500 MHz
SO-67 22 Oct 19:30:18 19:33:43 67° 258° (WSW) 19:37:10 435.3500 MHz FM
KITSAT 1 22 Oct 19:35:45 19:42:53 32° 25° (NNE) 19:49:58 435.175 FM
ISS 22 Oct 19:37:27 19:40:44 55° 206° (SSW) 19:44:00 145.800 FM
JAS-2 22 Oct 19:41:18 19:44:54 16° 279° (W) 19:48:45 435.800 - 435.900 CW/SSB, 435.910 FM
Hamsat 22 Oct 19:43:23 19:43:59 10° 274° (W) 19:44:34 145.90 MHz
OPAL 22 Oct 19:50:59 19:55:19 31° 300° (WNW) 19:59:37 ?
STRAND 1 22 Oct 19:51:51 19:56:55 52° 100° (E) 20:01:56 ?
UOSAT-12 22 Oct 19:52:22 19:54:45 14° 354° (N) 19:57:09 437.025 FM, 437.400 FM
SO-50 22 Oct 19:56:23 19:59:41 18° 21° (NNE) 20:03:00 436.795 FM
Oscar 11 22 Oct 20:12:57 20:13:51 11° 54° (NE) 20:14:46 145.825 FM, Beacon 2401.500 USB
HO-68 22 Oct 20:30:48 20:37:49 61° 65° (ENE) 20:44:52 435.675 MHz FM
ZACube-1 22 Oct 20:53:46 20:55:56 13° 56° (ENE) 20:58:05 437.345 MHz
UKube-1 22 Oct 21:01:40 21:05:33 32° 65° (ENE) 21:09:27 145.840 MHz, 145.915 MHz
ISS 22 Oct 21:15:26 21:16:51 12° 224° (SW) 21:18:16 145.800 FM
KITSAT 1 22 Oct 21:31:27 21:39:35 78° 50° (NE) 21:47:40 435.175 FM
STRAND 1 22 Oct 21:31:33 21:35:50 27° 299° (WNW) 21:40:06 ?
UOSAT-12 22 Oct 21:33:39 21:36:46 17° 19° (NNE) 21:39:53 437.025 FM, 437.400 FM
SO-50 22 Oct 21:36:35 21:41:17 52° 43° (NE) 21:46:03 436.795 FM
FUNcube-1 22 Oct 21:36:55 21:40:53 30° 65° (ENE) 21:44:48 145.950 - 145.970 MHz USB
Oscar 11 22 Oct 21:44:56 21:49:15 70° 73° (ENE) 21:53:34 145.825 FM, Beacon 2401.500 USB
RS-15 22 Oct 22:15:18 22:24:46 36° 108° (ESE) 22:34:11 29.354 - 29.394 USB, Beacon 29.352 USB
HO-68 22 Oct 22:19:36 22:25:55 33° 266° (W) 22:32:19 435.675 MHz FM
ZACube-1 22 Oct 22:27:03 22:31:39 83° 75° (ENE) 22:36:12 437.345 MHz
UKube-1 22 Oct 22:37:50 22:41:43 32° 264° (W) 22:45:39 145.840 MHz, 145.915 MHz
FUNcube-1 22 Oct 23:12:53 23:17:10 38° 263° (W) 23:21:24 145.950 - 145.970 MHz USB
UOSAT-12 22 Oct 23:13:28 23:18:03 46° 42° (NE) 23:22:34 437.025 FM, 437.400 FM
SO-50 22 Oct 23:17:28 23:21:42 31° 243° (WSW) 23:25:57 436.795 FM
Oscar 11 22 Oct 23:23:33 23:25:56 14° 272° (W) 23:28:19 145.825 FM, Beacon 2401.500 USB
KITSAT 1 22 Oct 23:27:32 23:34:18 31° 252° (WSW) 23:41:03 435.175 FM
ZACube-1 23 Oct 00:06:25 00:08:38 13° 273° (W) 00:10:50 437.345 MHz
RS-15 23 Oct 00:25:09 00:36:08 80° 312° (NW) 00:47:11 29.354 - 29.394 USB, Beacon 29.352 USB
MaSat-1 23 Oct 00:30:14 00:33:56 32° 114° (ESE) 00:37:20 437.345 MHz
UOSAT-12 23 Oct 00:53:52 00:58:06 33° 242° (WSW) 01:02:17 437.025 FM, 437.400 FM
Oscar 16 23 Oct 01:14:49 01:16:13 11° 84° (E) 01:17:36 437.025 USB, Beacon 2401.1428
